International Virtual Aviation Organisation

Russian Federation and Kazakhstan MCD

 

Карточка аэропорта UWWW

Внимание!
Информация на этой странице в стадии наполнения.
Если вы не увидели какой-то информации, или заметили неточность - пожалуйста сообщите нам!
Спасибо!
Команда RU-STAFF
Название аэропортаКурумоч
Название аэропорта (англ.)Kurumoch
Превышение476 ft. (145.1 m.)
Координаты53°30.102', 50°9.3000000000001'
Высота перехода900m
Эшелон переходаQFE>=749mm:FL050; QFE<749=>722:FL060; QFE<722:FL070
Коды ответчика4140-4177
Зона ОрВДСамара РПИ (UWWW)
Данные METARUWWW 242300Z 07005MPS 4900 -SNRA BR BKN023 00/M00 Q1001 R33/550240 NOSIG RMK QFE740/0987
Проноз погоды (TAF)UWWW 242000Z 2421/2521 09006G12MPS 2100 -SNRA BR BKN007 TX02/2511Z TNM01/2422Z TEMPO 2421/2504 17008G13MPS 0300 +SHSNRA FZDZ FZFG VV002 BECMG 2504/2505 24009G15MPS TEMPO 2505/2515 27016MPS 0800 +SHSNRA VV004
NOTAMshow/hide NOTAM
AWOS   TABLE

Информация о ВПП

ВПП Длина ВПП (м.) Покрытие Курс ВПП Частота ILS
052553Асфальтобетон49110.5
232553Асфальтобетон229109.7
153003Железобетон148111.9
333003Железобетон328111.1

Диспетчерские позиции

Позывной Наименование органа УВД Частота
UWWW_GNDСамара-Руление119.000
UWWW_TWRСамара-Старт118.200
UWWW_R_APPСамара-Круг128.000
UWWW_APPСамара-Подход124.600
UWWWFM1Машина сопровождения119.000



Спутниковое изображение